Tracking 29493 objects as of 8-Sep-2024
HD Live streaming from Space Station
objects crossing your sky now

FENGYUN 1C DEB

Track FENGYUN 1C DEB now!
10-day predictions


NORAD ID: 29832
Int'l Code: 1999-025EA
Perigee: 577.3 km
Apogee: 856.1 km
Inclination: 98.8 °
Period: 99.0 minutes
Semi major axis: 7087 km
RCS: 0.1 m2 (medium)
Launch date: May 10, 1999
Source: People's Republic of China (PRC)
Launch site: Taiyaun Space Center, China (TSC)

Note: This is SATELLITE DEBRIS
Your satellite tracking list
Your tracking list is empty




NASA's NSSDC Master Catalog

Two Line Element Set (TLE):
1 29832U 99025EA  24252.26766271  .00003302  00000-0  60334-3 0  9998
2 29832  98.8200 331.8000 0196739 245.8348 112.2169 14.54939919935550
Source of the keplerian elements: AFSPC